THOR ABLESTAR DEB, 967

Orbit data source: Space-Track

THOR ABLESTAR DEB, 967 is space debris in LEO originally from a launch on Sun, 13 Dec 1964 UTC launched from the Air Force Western Test Range (AFWTR). Debris objects in space refer to the collection of defunct objects orbiting the Earth. Examples of debris include non-operational satellites, rocket bodies, and fragments generated from explosions, collisions, or faulty payload assembly.

Loading next visibility...
THOR ABLESTAR DEB details
Identifier
967, 1964-083F
Orbit
LEO
Last TLE update13 hours ago
Origin
Flag of USUSN BuWeps (US)
ManufacturerUnknown
MissionSpacecraft
Bus & MotorUnknown
MassUnknown
Launch date (UTC)
1964-12-13 (60 years ago)
Launch vehicleUnknown
Launch site
Air Force Western Test Range (AFWTR)
Object type
Payload
Rocket body
Debris
Shape & HBRUnknown
Radar Cross SectionSmall (<0.1 m²)

Expand to show TLE details & history

TLE from 13 hours ago
0 THOR ABLESTAR DEB
1 00967U 64083F   24355.97060403  .00000507  00000-0  59413-3 0  9998
2 00967  89.9505 176.3878 0021590 206.1583 306.9868 13.67047124981814
Epoch: 2024-12-20T23:17Z
Definitive object data (Epoch: 2024-12-20T23:17:40.188Z)
Latitude27.08857°
Longitude-83.08331°
Altitude1,003.999 km
Speed7.357 km/s
True Right ascension23h 45m 27s
True Declination26° 57' 15"
Sunlit
Object was in daylight at TLE epoch
Visualization TLE readout
Latitude-44.50122°
Longitude-83.01244°
Altitude1,012.382 km
Speed7.352 km/s
Apparent Right ascension23h 22m 45s
Apparent Declination-42° 21' 19"
Sunlit
Object is in daylight
Visualization observer readout
Local Sidereal Time10:57:58
Azimuth240.377° WSW
Elevation-84.739°
Doppler factor1
Orbital elements
Apogee altitude1,023.161 km
Perigee altitude991.271 km
Semi-major axis7,385.353 km
Eccentricity0.002159
Inclination89.9505°
RAAN176.3878°
Arg. of periapsis206.1583°
True anomaly306.78886°
Mean anomaly306.9868°
Eccentric anomaly306.88786°
Mean motion3.41969 °/min
BSTAR0.00059413
Orbital period105.27 mins
Loading maneuver chart data...

THOR ABLESTAR DEB Visibility forecast

Observer location: undefined°, undefined

Span
Click to sort rows by Start time (UTC) header in descending order
Start Az.
Max El. time (UTC)
Max El. Az.
Max El.
End time (UTC)
End Az.
11 mins2024-12-21 12:42:15.850Z178.9° S2024-12-21 12:47:15.850Z202.57° SW44.315°2024-12-21 12:53:15.850Z356.272° N
9 mins2024-12-21 23:45:15.850Z28.349° NE2024-12-21 23:49:15.850Z80.893° E29.694°2024-12-21 23:54:15.850Z144.841° SSE
9 mins2024-12-22 01:30:15.850Z337.112° NNW2024-12-22 01:34:15.850Z286.853° WNW29.312°2024-12-22 01:39:15.850Z223.445° SW
9 mins2024-12-22 11:34:15.850Z127.614° SE2024-12-22 11:38:15.850Z79.751° E26.486°2024-12-22 11:43:15.850Z22.088° NNE
|